Location: Newark
(54.9353°N, 24.1167°E)
Time: 07:30:49
(UTC+00:00)

ISS - Visible Passes

Search period start: 23 September 2020 00:00
Search period end: 03 October 2020 00:00
Orbit: 419 x 420 km, 51.6° (Epoch: 23 September)

Date Brightness Start Highest point End Pass type
(mag) Time Alt. Az. Time Alt. Az. Time Alt. Az.
23 Sep -2.8 17:22:14 10° SW 17:25:19 33° SSE 17:27:27 17° ESE visible
23 Sep -2.1 18:58:32 10° WSW 19:00:25 28° WSW 19:00:25 28° WSW visible
24 Sep -3.4 18:11:13 10° WSW 18:14:28 48° S 18:14:50 45° SSE visible
25 Sep -3.2 17:23:54 10° WSW 17:27:08 44° S 17:29:12 19° ESE visible
25 Sep -1.8 19:00:27 10° W 19:02:09 25° WSW 19:02:09 25° WSW visible
26 Sep -3.3 18:13:03 10° W 18:16:19 46° S 18:16:30 45° S visible
27 Sep -3.3 17:25:40 10° WSW 17:28:57 48° S 17:30:49 22° ESE visible
27 Sep -1.4 19:02:25 10° W 19:03:47 19° WSW 19:03:47 19° WSW visible
28 Sep -3.2 16:38:18 10° WSW 16:41:34 48° S 16:44:51 10° ESE visible
28 Sep -2.8 18:14:57 10° W 18:18:04 35° SSW 18:18:06 35° SSW visible
29 Sep -2.9 17:27:29 10° W 17:30:43 41° SSW 17:32:25 22° SE visible
29 Sep -1.0 19:04:36 10° WSW 19:05:23 14° WSW 19:05:23 14° WSW visible
30 Sep -3.0 16:40:04 10° W 16:43:19 46° S 16:46:34 10° ESE visible
30 Sep -2.0 18:16:56 10° W 18:19:41 23° SSW 18:19:43 23° SSW visible
01 Oct -2.3 17:29:23 10° W 17:32:21 29° SSW 17:34:05 18° SSE visible
02 Oct -2.5 16:41:52 10° W 16:45:00 35° SSW 16:48:06 10° SE visible
02 Oct -1.2 18:19:25 10° WSW 18:21:08 13° SW 18:21:28 13° SSW visible
